Погода в Хоре

Россия / Хабаровский край     47°53′06″N   134°57′26″E
темп.,
°C
ветер,
м/с
пор.,
м/с
влажн.,
%
обл.,
%
осадки,
мм/ч
давл.,
гПа
погр.,
м
18 января, пн
пн1801:00−21ююв1298100 0.1 101924
04:00−22ююв2298100 0.2 101747
07:00−23вюв2296100 0.0 101620
10:00−21всв119699 0.1 101556
13:00−18ю1192100 0.3 1015261
16:00−18з3492100 0.3 1014450
19:00−23з239783 0.0 101620
22:00−24з339971 0.1 101753
19 января, вт
вт1901:00−23зюз3698100 0.1 1019185
04:00−24зюз589799 0.1 1019294
07:00−28юз599594 0.0 1022223
10:00−27юз6119256 0.0 1023401
13:00−24зюз7118460 0.0 1025664
16:00−22зюз7117960 0.0 1025818
19:00−24юз6128614 0.0 1028312
22:00−25юз511917 0.0 1028294
20 января, ср
ср2001:00−26зюз511920 0.0 1028285
04:00−27зюз411910 0.0 1028249
07:00−27зюз49900 0.0 1029226
10:00−26юз310900 0.0 1029325
13:00−21юз48820 0.0 1029445
16:00−20зюз24834 0.0 1027262
19:00−20юв1187100 0.0 102722
22:00−19ю2288100 0.0 102568
21 января, чт
чт2101:00−19ю1287100 0.0 102425
04:00−18зюз2298100 0.5 102346
07:00−19юз369898 0.2 1023153
10:00−19юз369899 0.3 1024220
13:00−17зюз3594100 0.0 1023316
16:00−16зюз3592100 0.0 1021308
19:00−18з2395100 0.0 102138
22:00−20з2296100 0.0 101921
22 января, пт
пт2201:00−19зюз2294100 0.0 101722
04:00−18зсз1195100 0.0 101620
07:00−17зсз1297100 0.3 101527
10:00−18зсз2394100 0.5 1016151
13:00−18з3490100 0.0 1017467
16:00−19з5789100 0.0 1019569
19:00−24зюз469561 0.0 1023115
22:00−26юз489331 0.0 1026131